Fort Rucker / Ozark, AL

1:55 AM CDT on October 18, 2017 (GMT -0500)
Fort Rucker / Ozark

Weather History for KLOR - January, 2014

Change the Weather History Date:

Monday, January 27, 2014

  Actual Average (KOZR) Record (KOZR)
Temperature  
Mean Temperature 54 °F -  
Max Temperature 64 °F 57 °F 78 °F (1999)
Min Temperature 45 °F 38 °F 24 °F (2000)
Degree Days  
Heating Degree Days 10    
Growing Degree Days 4 (Base 50)    
Moisture  
Dew Point 51 °F    
Average Humidity 88    
Maximum Humidity 100    
Minimum Humidity 56    
Precipitation  
Precipitation 0.16 in - - ()
Sea Level Pressure  
Sea Level Pressure 29.95 in    
Wind  
Wind Speed 3 mph (North)    
Max Wind Speed 12 mph    
Max Gust Speed 24 mph    
Visibility 6 miles    
Events Rain    
Averages and records for this station are not official NWS values.
T = Trace of Precipitation, MM = Missing Value Source: NWS Daily Summary

Daily Weather History Graph

Daily Weather History Graph

Search for Another Location

Airport or City:

Trip Planner

Search our weather history database for the weather conditions in past years. The results will help you decide how hot, cold, wet, or windy it might be!

Date:

Astronomy

Jan. 27, 2014 Rise Set
Actual Time 6:38 AM CST 5:13 PM CST
Civil Twilight 6:12 AM CST 5:39 PM CST
Nautical Twilight 5:43 AM CST 6:08 PM CST
Astronomical Twilight 5:14 AM CST 6:37 PM CST
Moon 3:16 AM CST (1/27) 2:01 PM CST (1/27)
Length of Visible Light 11h 26m
Length of Day
10h 35m
Waning Crescent, 14% of the Moon is Illuminated
Jan 27
Waning Crescent
Jan 30
New
Feb 6
First Quarter
Feb 14
Full
Feb 22
Last Quarter

Hourly Weather History & Observations

Time (CST) Temp. Windchill Dew Point Humidity Pressure Visibility Wind Dir Wind Speed Gust Speed Precip Events Conditions
12:09 AM 48.0 °F - 41.0 °F 77% 29.95 in 10.0 mi Calm Calm - N/A   Mostly Cloudy
12:53 AM 46.9 °F - 41.0 °F 80% 29.94 in 10.0 mi Calm Calm - N/A   Partly Cloudy
1:53 AM 48.9 °F - 44.1 °F 83% 29.93 in 10.0 mi South 4.6 mph - N/A   Scattered Clouds
2:53 AM 48.9 °F - 46.0 °F 90% 29.93 in 10.0 mi SSW 3.5 mph - N/A   Mostly Cloudy
3:53 AM 48.0 °F - 45.0 °F 89% 29.92 in 10.0 mi Calm Calm - N/A   Scattered Clouds
4:53 AM 46.9 °F - 44.1 °F 90% 29.93 in 10.0 mi Calm Calm - 0.00 in   Scattered Clouds
5:53 AM 46.0 °F - 44.1 °F 93% 29.93 in 7.0 mi Calm Calm - N/A   Mostly Cloudy
6:53 AM 45.0 °F - 45.0 °F 100% 29.94 in 1.5 mi Calm Calm - N/A   Clear
7:14 AM 46.0 °F - 45.0 °F 96% 29.94 in 3.0 mi Calm Calm - N/A   Clear
7:53 AM 48.9 °F - 46.0 °F 90% 29.95 in 8.0 mi Calm Calm - N/A   Mostly Cloudy
8:15 AM 52.0 °F - 48.9 °F 89% 29.95 in 8.0 mi South 5.8 mph - N/A   Overcast
8:53 AM 55.0 °F - 51.1 °F 86% 29.96 in 10.0 mi SSW 5.8 mph - N/A   Mostly Cloudy
9:53 AM 59.0 °F - 54.0 °F 83% 29.96 in 10.0 mi South 4.6 mph - N/A   Overcast
10:53 AM 64.9 °F - 55.9 °F 73% 29.94 in 10.0 mi SSW 9.2 mph - N/A   Overcast
11:53 AM 59.0 °F - 55.0 °F 87% 29.93 in 3.0 mi NNW 11.5 mph 24.2 mph 0.02 in Rain Heavy Rain
11:57 AM 57.9 °F - 55.0 °F 90% 29.93 in 1.8 mi North 8.1 mph 24.2 mph 0.01 in Rain Rain
12:03 PM 57.9 °F - 55.9 °F 93% 29.93 in 2.0 mi NNW 8.1 mph - 0.02 in Rain Light Rain
12:24 PM 57.9 °F - 55.9 °F 93% 29.93 in 2.5 mi NNW 5.8 mph - 0.05 in Rain Rain
12:31 PM 57.0 °F - 55.9 °F 96% 29.92 in 1.8 mi North 5.8 mph - 0.07 in Rain Light Rain
12:41 PM 57.9 °F - 55.9 °F 93% 29.92 in 2.0 mi North 4.6 mph - 0.08 in Rain Light Rain
12:50 PM 57.2 °F - 55.4 °F 94% 29.92 in 3.0 mi North 5.8 mph - 0.09 in Rain Light Rain
12:53 PM 57.9 °F - 55.9 °F 93% 29.92 in 2.5 mi NNW 4.6 mph - 0.09 in Rain Rain
1:03 PM 57.9 °F - 55.9 °F 93% 29.91 in 1.5 mi Calm Calm - 0.03 in Rain Rain
1:11 PM 57.9 °F - 55.9 °F 93% 29.91 in 3.0 mi North 4.6 mph - 0.03 in Rain Light Rain
1:53 PM 57.9 °F - 55.9 °F 93% 29.91 in 10.0 mi NNE 4.6 mph - 0.03 in   Overcast
2:40 PM 59.0 °F - 55.9 °F 90% 29.91 in 8.0 mi NNW 5.8 mph - 0.00 in Rain Light Rain
2:53 PM 57.9 °F - 55.9 °F 93% 29.91 in 2.5 mi North 5.8 mph - 0.02 in Rain Rain
2:57 PM 59.0 °F - 55.9 °F 90% 29.91 in 3.0 mi North 5.8 mph - 0.00 in Rain Light Rain
3:06 PM 57.9 °F - 55.9 °F 93% 29.92 in 9.0 mi NNW 5.8 mph - 0.00 in   Overcast
3:16 PM 57.9 °F - 55.9 °F 93% 29.92 in 9.0 mi North 5.8 mph - 0.00 in   Overcast
3:36 PM 57.9 °F - 55.0 °F 90% 29.92 in 7.0 mi North 8.1 mph - 0.00 in   Overcast
3:53 PM 57.9 °F - 55.0 °F 90% 29.93 in 5.0 mi North 8.1 mph - 0.00 in   Overcast
4:17 PM 57.0 °F - 54.0 °F 89% 29.94 in 5.0 mi North 6.9 mph - 0.00 in Rain Light Rain
4:53 PM 55.9 °F - 54.0 °F 93% 29.94 in 4.0 mi Calm Calm - 0.00 in   Overcast
5:42 PM 55.9 °F - 54.0 °F 93% 29.95 in 5.0 mi Calm Calm - N/A   Overcast
5:53 PM 55.9 °F - 54.0 °F 93% 29.96 in 5.0 mi Calm Calm - N/A   Overcast
6:17 PM 55.9 °F - 54.0 °F 93% 29.97 in 2.5 mi Calm Calm - N/A   Overcast
6:53 PM 55.0 °F - 54.0 °F 96% 29.98 in 2.5 mi Calm Calm - N/A   Overcast
7:04 PM 55.9 °F - 54.0 °F 93% 29.99 in 4.0 mi Calm Calm - N/A   Overcast
7:53 PM 55.0 °F - 53.1 °F 93% 30.00 in 3.0 mi Calm Calm - N/A   Overcast
8:12 PM 55.9 °F - 54.0 °F 93% 30.00 in 3.0 mi Calm Calm - N/A   Overcast
8:48 PM 55.4 °F - 53.6 °F 94% 30.01 in 7.0 mi North 8.1 mph - N/A   Overcast
8:53 PM 55.0 °F - 52.0 °F 89% 30.01 in 7.0 mi North 8.1 mph - N/A   Overcast
9:08 PM 53.1 °F - 48.9 °F 86% 30.01 in 9.0 mi NNE 9.2 mph - N/A   Mostly Cloudy
9:53 PM 50.0 °F - 43.0 °F 77% 30.02 in 10.0 mi North 8.1 mph - N/A   Mostly Cloudy
10:53 PM 46.9 °F - 36.0 °F 66% 30.05 in 10.0 mi North 8.1 mph - N/A   Overcast
11:33 PM 46.0 °F 41.4 °F 30.9 °F 56% 30.06 in 10.0 mi North 9.2 mph - N/A   Overcast
11:53 PM 45.0 °F 40.6 °F 30.0 °F 56% 30.06 in 10.0 mi North 8.1 mph - N/A   Overcast